| time (UTC) | temp C | wind direction | speed KPH | gust KPH | rain 1hr cm | rain 24hr cm | rain mn cm | humidity % | barometer mb |
| 20260505210106 | 26 | 227 | 11.3 | 27.4 | 0.00 | 0.03 | 0.03 | 35 | 1008.1 |
| 20260505204603 | 27 | 202 | 8.0 | 27.4 | 0.00 | 0.03 | 0.03 | 36 | 1008.2 |
| 20260505203102 | 26 | 334 | 6.4 | 29.0 | 0.00 | 0.03 | 0.03 | 36 | 1008.3 |
| 20260505201551 | 27 | 297 | 8.0 | 29.0 | 0.00 | 0.03 | 0.03 | 34 | 1008.2 |
| 20260505200056 | 27 | 279 | 11.3 | 29.0 | 0.00 | 0.03 | 0.03 | 38 | 1008.2 |
| 20260505194549 | 27 | 170 | 9.7 | 32.2 | 0.00 | 0.03 | 0.03 | 34 | 1008.2 |
| 20260505193100 | 26 | 209 | 8.0 | 30.6 | 0.00 | 0.03 | 0.03 | 39 | 1008.2 |
| 20260505191554 | 27 | 192 | 4.8 | 22.5 | 0.00 | 0.03 | 0.03 | 38 | 1008.5 |
| 20260505190051 | 27 | 207 | 6.4 | 32.2 | 0.00 | 0.03 | 0.03 | 39 | 1008.7 |
| 20260505184550 | 27 | 228 | 4.8 | 30.6 | 0.00 | 0.03 | 0.03 | 41 | 1008.8 |
| 20260505183050 | 27 | 252 | 4.8 | 25.7 | 0.00 | 0.03 | 0.03 | 37 | 1008.9 |
| 20260505181559 | 27 | 198 | 6.4 | 20.9 | 0.00 | 0.03 | 0.03 | 41 | 1009.1 |
| 20260505180058 | 27 | 196 | 4.8 | 19.3 | 0.00 | 0.03 | 0.03 | 42 | 1009.3 |
| 20260505174602 | 27 | 296 | 6.4 | 29.0 | 0.00 | 0.03 | 0.03 | 43 | 1009.4 |
| 20260505173055 | 27 | 153 | 8.0 | 20.9 | 0.00 | 0.03 | 0.03 | 44 | 1009.6 |
| 20260505171550 | 26 | 152 | 4.8 | 24.1 | 0.00 | 0.03 | 0.03 | 44 | 1009.4 |
| 20260505170055 | 26 | 313 | 3.2 | 17.7 | 0.00 | 0.03 | 0.03 | 50 | 1009.6 |
| 20260505164551 | 26 | 312 | 4.8 | 12.9 | 0.00 | 0.03 | 0.03 | 46 | 1009.8 |
| 20260505163054 | 26 | 165 | 6.4 | 19.3 | 0.00 | 0.03 | 0.03 | 48 | 1010.1 |
| 20260505161551 | 26 | 328 | 3.2 | 16.1 | 0.00 | 0.03 | 0.03 | 47 | 1010.2 |
| 20260505153055 | 24 | 234 | 4.8 | 12.9 | 0.00 | 0.03 | 0.03 | 51 | 1010.6 |
| 20260505151556 | 23 | 161 | 4.8 | 17.7 | 0.00 | 0.03 | 0.03 | 51 | 1010.7 |
| 20260505150108 | 23 | 244 | 3.2 | 12.9 | 0.00 | 0.03 | 0.03 | 53 | 1010.9 |
| 20260505130109 | 18 | 228 | 3.2 | 16.1 | 0.00 | 0.03 | 0.03 | 68 | 1011.5 |
| 20260505124558 | 18 | 283 | 4.8 | 17.7 | 0.00 | 0.03 | 0.03 | 68 | 1011.3 |
| 20260505123057 | 17 | 0 | 3.2 | 11.3 | 0.00 | 0.03 | 0.03 | 69 | 1011.2 |
| 20260505121553 | 17 | 324 | 3.2 | 9.7 | 0.00 | 0.03 | 0.03 | 73 | 1011.3 |
| 20260505120104 | 16 | 236 | 1.6 | 6.4 | 0.00 | 0.03 | 0.03 | 77 | 1010.9 |
| 20260505114552 | 14 | 0 | 0.0 | 1.6 | 0.00 | 0.03 | 0.03 | 90 | 1011.2 |
| 20260505113051 | 12 | 0 | 0.0 | 3.2 | 0.00 | 0.03 | 0.03 | 93 | 1011.1 |
| 20260505111549 | 11 | 0 | 0.0 | 3.2 | 0.00 | 0.03 | 0.03 | 94 | 1011.4 |
| 20260505101552 | 11 | 0 | 0.0 | 6.4 | 0.03 | 0.03 | 0.03 | 89 | 1011.0 |
| 20260505100050 | 11 | 0 | 0.0 | 3.2 | 0.03 | 0.03 | 0.03 | 88 | 1010.9 |
| 20260505094601 | 12 | 0 | 0.0 | 0.0 | 0.03 | 0.03 | 0.03 | 87 | 1011.2 |
| 20260505093055 | 12 | 0 | 0.0 | 0.0 | 0.03 | 0.03 | 0.03 | 84 | 1011.2 |
| 20260505091559 | 12 | 0 | 0.0 | 4.8 | 0.00 | 0.00 | 0.00 | 83 | 1010.9 |
| 20260505090048 | 12 | 0 | 0.0 | 1.6 | 0.00 | 0.00 | 0.00 | 82 | 1010.5 |
| 20260505084554 | 12 | 285 | 1.6 | 4.8 | 0.00 | 0.00 | 0.00 | 83 | 1010.2 |
| 20260505083058 | 12 | 0 | 1.6 | 4.8 | 0.00 | 0.00 | 0.00 | 82 | 1010.1 |
| 20260505081557 | 12 | 0 | 0.0 | 3.2 | 0.00 | 0.00 | 0.00 | 80 | 1010.2 |
| 20260505080059 | 12 | 0 | 0.0 | 0.0 | 0.00 | 0.00 | 0.00 | 79 | 1010.3 |
| 20260505074554 | 12 | 0 | 1.6 | 4.8 | 0.00 | 0.00 | 0.00 | 79 | 1010.4 |
| 20260505073051 | 12 | 0 | 1.6 | 4.8 | 0.00 | 0.00 | 0.00 | 78 | 1010.2 |
| 20260505071556 | 12 | 286 | 0.0 | 4.8 | 0.00 | 0.00 | 0.00 | 78 | 1010.0 |
| 20260505070054 | 11 | 286 | 1.6 | 4.8 | 0.00 | 0.00 | 0.00 | 79 | 1010.3 |
| 20260505064555 | 11 | 284 | 1.6 | 4.8 | 0.00 | 0.00 | 0.00 | 80 | 1010.1 |
| 20260505063055 | 11 | 0 | 0.0 | 3.2 | 0.00 | 0.00 | 0.00 | 79 | 1010.3 |
| 20260505061601 | 11 | 276 | 1.6 | 4.8 | 0.00 | 0.00 | 0.00 | 79 | 1010.3 |
| 20260505060055 | 11 | 296 | 0.0 | 3.2 | 0.00 | 0.00 | 0.00 | 79 | 1010.0 |
| 20260505054556 | 11 | 294 | 0.0 | 3.2 | 0.00 | 0.00 | 0.00 | 78 | 1009.9 |
| 20260505053056 | 11 | 0 | 0.0 | 4.8 | 0.00 | 0.00 | 0.00 | 76 | 1009.9 |
| 20260505051555 | 11 | 0 | 0.0 | 1.6 | 0.00 | 0.00 | 0.00 | 74 | 1009.9 |
| 20260505041556 | 13 | 0 | 0.0 | 8.0 | 0.00 | 0.00 | 0.00 | 65 | 1010.1 |
| 20260505040104 | 13 | 325 | 0.0 | 4.8 | 0.00 | 0.00 | 0.00 | 65 | 1010.0 |
| 20260505034559 | 13 | 0 | 0.0 | 3.2 | 0.00 | 0.00 | 0.00 | 64 | 1010.0 |
| 20260505033052 | 14 | 309 | 1.6 | 4.8 | 0.00 | 0.00 | 0.00 | 63 | 1010.1 |
| 20260505031600 | 14 | 0 | 0.0 | 6.4 | 0.00 | 0.00 | 0.00 | 61 | 1010.2 |
| 20260505030059 | 15 | 0 | 0.0 | 6.4 | 0.00 | 0.00 | 0.00 | 61 | 1010.2 |
| 20260505024553 | 14 | 192 | 0.0 | 8.0 | 0.00 | 0.00 | 0.00 | 61 | 1010.2 |
| 20260505023051 | 14 | 0 | 0.0 | 4.8 | 0.00 | 0.00 | 0.00 | 62 | 1010.4 |
| 20260505021552 | 14 | 0 | 0.0 | 4.8 | 0.00 | 0.00 | 0.00 | 61 | 1010.5 |
| 20260505020052 | 13 | 0 | 0.0 | 1.6 | 0.00 | 0.00 | 0.00 | 62 | 1010.6 |
| 20260505014603 | 14 | 0 | 0.0 | 4.8 | 0.00 | 0.00 | 0.00 | 61 | 1010.6 |
| 20260505013048 | 15 | 0 | 0.0 | 0.0 | 0.00 | 0.00 | 0.00 | 59 | 1010.3 |
| 20260505011554 | 15 | 0 | 0.0 | 0.0 | 0.00 | 0.00 | 0.00 | 57 | 1010.2 |
| 20260505010057 | 16 | 0 | 0.0 | 1.6 | 0.00 | 0.00 | 0.00 | 55 | 1010.0 |
| 20260505004556 | 16 | 0 | 0.0 | 3.2 | 0.00 | 0.00 | 0.00 | 54 | 1009.8 |
| 20260505003053 | 17 | 0 | 0.0 | 3.2 | 0.00 | 0.00 | 0.00 | 52 | 1009.9 |
| 20260505001553 | 17 | 215 | 0.0 | 3.2 | 0.00 | 0.00 | 0.00 | 50 | 1009.9 |
| 20260505000055 | 18 | 0 | 0.0 | 4.8 | 0.00 | 0.00 | 0.00 | 48 | 1009.9 |
| 20260504234554 | 18 | 227 | 1.6 | 11.3 | 0.00 | 0.00 | 0.00 | 47 | 1009.5 |
| 20260504233056 | 19 | 0 | 1.6 | 8.0 | 0.00 | 0.00 | 0.00 | 46 | 1009.3 |
| 20260504231553 | 20 | 173 | 1.6 | 9.7 | 0.00 | 0.00 | 0.00 | 45 | 1009.2 |
| 20260504230053 | 20 | 180 | 4.8 | 14.5 | 0.00 | 0.00 | 0.00 | 44 | 1009.3 |
| 20260504224555 | 20 | 215 | 4.8 | 17.7 | 0.00 | 0.00 | 0.00 | 43 | 1009.0 |
| 20260504223056 | 20 | 201 | 3.2 | 14.5 | 0.00 | 0.00 | 0.00 | 42 | 1009.2 |
| 20260504221552 | 21 | 250 | 1.6 | 11.3 | 0.00 | 0.00 | 0.00 | 42 | 1009.2 |
| 20260504220049 | 21 | 276 | 1.6 | 11.3 | 0.00 | 0.00 | 0.00 | 41 | 1009.1 |
| 20260504214604 | 21 | 0 | 1.6 | 8.0 | 0.00 | 0.00 | 0.00 | 42 | 1009.2 |
| 20260504213050 | 21 | 141 | 3.2 | 9.7 | 0.00 | 0.00 | 0.00 | 41 | 1009.4 |
| 20260504211552 | 21 | 232 | 3.2 | 14.5 | 0.00 | 0.00 | 0.00 | 41 | 1009.5 |